FLOCK 3P'-3

Last updated on Wed Feb 14 2018 16:20:56 GMT+0000 (Coordinated Universal Time)

1 43119U 18004J 18044.94641657 .00000714 00000-0 34386-4 0 9990 2 43119 97.5509 107.2032 0011260 158.4939 201.6772 15.22017416 4962
UTC large
Height (km)
Speed (km/s)
/
Latitude / Longitude
Inclination (degrees)
Orbital Period (minutes)
Azimuth
Elevation
Range (km)
Doppler Factor

Next 0 passes for location: London (51.5072 / 0.1276)

Sorry there are no passes over London.